Radiation Dose at Monitoring Post of Fukushima Daini Nuclear Power Station
Date,Time,MP-1(microSv/h),MP-2(microSv/h),MP-3(microSv/h),MP-4(microSv/h),MP-5(microSv/h),MP-6(microSv/h),MP-7(microSv/h),Wind Direction,Wind Velocity(m/s),Rain
2015/07/26,00:00,0.500,0.291,0.516,0.472,0.466,0.234,0.203,northwest,2.5,No
2015/07/26,00:10,0.494,0.290,0.521,0.479,0.462,0.234,0.203,northwest,2.7,No
2015/07/26,00:20,0.496,0.288,0.519,0.475,0.458,0.232,0.203,northwest,2.7,No
2015/07/26,00:30,0.501,0.291,0.515,0.473,0.465,0.233,0.204,west-northwest,2.5,No
2015/07/26,00:40,0.497,0.290,0.525,0.478,0.467,0.234,0.202,north-northwest,2.3,No
2015/07/26,00:50,0.493,0.289,0.521,0.475,0.461,0.233,0.203,north-northwest,3.1,No
2015/07/26,01:00,0.500,0.291,0.516,0.473,0.459,0.234,0.204,northwest,3.1,No
2015/07/26,01:10,0.498,0.290,0.519,0.480,0.466,0.234,0.202,northwest,2.9,No
2015/07/26,01:20,0.493,0.288,0.521,0.477,0.464,0.234,0.204,northwest,2.5,No
2015/07/26,01:30,0.495,0.292,0.517,0.470,0.459,0.234,0.204,west-northwest,2.0,No
2015/07/26,01:40,0.499,0.290,0.515,0.477,0.462,0.232,0.203,northwest,3.1,No
2015/07/26,01:50,0.494,0.287,0.523,0.478,0.466,0.234,0.204,north-northwest,2.2,No
2015/07/26,02:00,0.493,0.291,0.520,0.473,0.461,0.234,0.203,north-northwest,2.4,No
2015/07/26,02:10,0.500,0.291,0.514,0.475,0.458,0.234,0.204,northwest,2.2,No
2015/07/26,02:20,0.497,0.289,0.522,0.477,0.465,0.235,0.204,north-northwest,4.2,No
2015/07/26,02:30,0.492,0.291,0.522,0.474,0.463,0.234,0.203,west-northwest,4.4,No
2015/07/26,02:40,0.498,0.290,0.516,0.473,0.458,0.234,0.205,west-northwest,4.5,No
2015/07/26,02:50,0.497,0.288,0.517,0.478,0.460,0.234,0.203,west-northwest,4.3,No
2015/07/26,03:00,0.494,0.291,0.520,0.475,0.466,0.233,0.203,northwest,3.5,No
2015/07/26,03:10,0.496,0.291,0.518,0.472,0.459,0.234,0.205,west-northwest,3.1,No
2015/07/26,03:20,0.500,0.289,0.514,0.477,0.458,0.232,0.204,west-northwest,3.0,No
2015/07/26,03:30,0.495,0.291,0.520,0.477,0.464,0.234,0.204,northwest,2.8,No
2015/07/26,03:40,0.496,0.289,0.520,0.471,0.464,0.234,0.204,northwest,2.2,No
2015/07/26,03:50,0.498,0.289,0.514,0.477,0.458,0.233,0.202,west,1.1,No
2015/07/26,04:00,0.493,0.291,0.521,0.477,0.466,0.234,0.205,west-southwest,1.3,No
2015/07/26,04:10,0.496,0.289,0.521,0.471,0.466,0.232,0.202,west-southwest,2.7,No
2015/07/26,04:20,0.498,0.288,0.516,0.476,0.461,0.234,0.203,west,2.7,No
2015/07/26,04:30,0.493,0.292,0.520,0.478,0.460,0.233,0.205,west,3.6,No
2015/07/26,04:40,0.498,0.289,0.522,0.472,0.465,0.233,0.204,west,3.3,No
2015/07/26,04:50,0.499,0.289,0.518,0.475,0.461,0.236,0.205,west,2.2,No
2015/07/26,05:00,0.494,0.291,0.520,0.478,0.458,0.233,0.203,west,2.8,No
2015/07/26,05:10,0.496,0.289,0.521,0.472,0.467,0.234,0.204,west,5.1,No
2015/07/26,05:20,0.500,0.290,0.517,0.476,0.464,0.233,0.204,west-southwest,3.3,No
2015/07/26,05:30,0.494,0.290,0.519,0.477,0.459,0.232,0.203,west,2.5,No
2015/07/26,05:40,0.494,0.288,0.523,0.473,0.463,0.234,0.203,west,3.4,No
2015/07/26,05:50,0.500,0.288,0.516,0.474,0.464,0.232,0.204,west,3.3,No
2015/07/26,06:00,0.495,0.290,0.516,0.481,0.462,0.234,0.201,northwest,2.5,No
2015/07/26,06:10,0.494,0.288,0.523,0.474,0.457,0.233,0.203,west-northwest,2.6,No
2015/07/26,06:20,0.501,0.287,0.519,0.470,0.465,0.234,0.204,northwest,2.8,No
2015/07/26,06:30,0.496,0.293,0.514,0.480,0.465,0.234,0.203,northwest,2.5,No
2015/07/26,06:40,0.491,0.291,0.520,0.477,0.458,0.233,0.202,west-northwest,1.9,No
2015/07/26,06:50,0.498,0.289,0.520,0.475,0.459,0.232,0.201,northwest,2.8,No
2015/07/26,07:00,0.499,0.288,0.516,0.469,0.463,0.234,0.204,west-southwest,1.0,No
2015/07/26,07:10,0.494,0.287,0.514,0.472,0.464,0.234,0.204,-,CALM,No
2015/07/26,07:20,0.492,0.288,0.515,0.478,0.462,0.233,0.203,northeast,1.1,No
2015/07/26,07:30,0.499,0.289,0.513,0.476,0.460,0.234,0.204,northeast,1.0,No
2015/07/26,07:40,0.497,0.287,0.514,0.474,0.456,0.234,0.204,east-northeast,1.6,No
2015/07/26,07:50,0.495,0.288,0.517,0.473,0.457,0.233,0.203,east-northeast,1.1,No
2015/07/26,08:00,0.492,0.289,0.517,0.475,0.465,0.233,0.204,east-southeast,1.6,No
2015/07/26,08:10,0.492,0.290,0.517,0.472,0.465,0.234,0.205,southeast,1.1,No
2015/07/26,08:20,0.494,0.290,0.514,0.475,0.464,0.234,0.204,east,1.3,No
2015/07/26,08:30,0.493,0.292,0.517,0.474,0.463,0.234,0.204,east-southeast,1.0,No
2015/07/26,08:40,0.494,0.293,0.518,0.476,0.462,0.234,0.204,east-southeast,1.0,No
2015/07/26,08:50,0.492,0.292,0.520,0.476,0.462,0.235,0.205,south-southeast,2.7,No
2015/07/26,09:00,0.495,0.291,0.526,0.476,0.460,0.236,0.207,south-southeast,2.4,No
2015/07/26,09:10,0.496,0.290,0.524,0.477,0.463,0.234,0.207,south-southeast,2.1,No
2015/07/26,09:20,0.496,0.293,0.520,0.480,0.464,0.236,0.207,southeast,2.3,No
2015/07/26,09:30,0.498,0.293,0.520,0.481,0.464,0.236,0.207,east-southeast,3.0,No
2015/07/26,09:40,0.498,0.295,0.519,0.482,0.464,0.235,0.207,east-southeast,2.9,No
2015/07/26,09:50,0.500,0.294,0.517,0.484,0.465,0.235,0.207,east-southeast,2.4,No
2015/07/26,10:00,0.500,0.294,0.520,0.483,0.464,0.235,0.205,east,1.6,No
2015/07/26,10:10,0.500,0.293,0.517,0.482,0.467,0.236,0.206,east,2.4,No
2015/07/26,10:20,0.500,0.293,0.517,0.482,0.466,0.235,0.205,east,1.8,No
2015/07/26,10:30,0.500,0.292,0.519,0.481,0.465,0.235,0.205,east-southeast,1.8,No
2015/07/26,10:40,0.501,0.293,0.520,0.480,0.464,0.236,0.206,southeast,1.8,No
2015/07/26,10:50,0.501,0.292,0.523,0.482,0.463,0.237,0.207,south-southeast,2.1,No
2015/07/26,11:00,0.501,0.293,0.522,0.480,0.464,0.236,0.206,south-southeast,2.3,No
2015/07/26,11:10,0.501,0.293,0.524,0.481,0.465,0.235,0.207,south,2.5,No
2015/07/26,11:20,0.502,0.292,0.524,0.478,0.463,0.237,0.208,south-southeast,3.0,No
2015/07/26,11:30,0.501,0.293,0.525,0.479,0.466,0.237,0.206,south,2.7,No
2015/07/26,11:40,0.501,0.293,0.526,0.481,0.463,0.238,0.208,south,2.5,No
2015/07/26,11:50,0.502,0.294,0.526,0.480,0.463,0.237,0.207,south-southeast,1.9,No
2015/07/26,12:00,0.502,0.293,0.526,0.479,0.461,0.238,0.207,south,2.6,No
2015/07/26,12:10,0.500,0.294,0.527,0.479,0.463,0.238,0.208,south,3.6,No
2015/07/26,12:20,0.500,0.293,0.526,0.481,0.461,0.238,0.208,south-southeast,3.4,No
2015/07/26,12:30,0.501,0.294,0.528,0.481,0.463,0.238,0.209,south,3.6,No
2015/07/26,12:40,0.500,0.293,0.525,0.480,0.462,0.238,0.208,south,4.2,No
2015/07/26,12:50,0.501,0.293,0.526,0.482,0.461,0.238,0.208,south,3.6,No
2015/07/26,13:00,0.499,0.293,0.525,0.481,0.461,0.236,0.208,south,5.1,No
2015/07/26,13:10,0.499,0.293,0.525,0.481,0.462,0.237,0.206,south,5.0,No
2015/07/26,13:20,0.497,0.291,0.525,0.482,0.461,0.237,0.206,south-southeast,4.9,No
2015/07/26,13:30,0.498,0.292,0.525,0.481,0.463,0.239,0.207,south,4.8,No
2015/07/26,13:40,0.498,0.292,0.524,0.480,0.461,0.237,0.206,south-southeast,4.7,No
2015/07/26,13:50,0.498,0.293,0.521,0.479,0.460,0.236,0.206,south-southeast,5.2,No
2015/07/26,14:00,0.500,0.294,0.523,0.481,0.460,0.238,0.208,south-southeast,5.0,No
2015/07/26,14:10,0.499,0.294,0.523,0.480,0.461,0.238,0.207,south,5.3,No
2015/07/26,14:20,0.500,0.294,0.523,0.481,0.459,0.238,0.207,south-southeast,5.9,No
2015/07/26,14:30,0.503,0.293,0.523,0.481,0.461,0.237,0.207,south-southeast,5.8,No
2015/07/26,14:40,0.501,0.292,0.522,0.479,0.461,0.236,0.205,south-southeast,6.0,No
2015/07/26,14:50,0.499,0.292,0.520,0.479,0.458,0.235,0.206,south,6.3,No
2015/07/26,15:00,0.497,0.291,0.520,0.478,0.456,0.235,0.205,south,6.8,No
2015/07/26,15:10,0.497,0.290,0.519,0.476,0.457,0.235,0.206,south,6.3,No
2015/07/26,15:20,0.497,0.291,0.519,0.475,0.458,0.235,0.206,south,5.7,No
2015/07/26,15:30,0.498,0.292,0.519,0.475,0.457,0.236,0.206,south,5.8,No
2015/07/26,15:40,0.497,0.293,0.520,0.476,0.460,0.237,0.205,south,6.1,No
2015/07/26,15:50,0.497,0.292,0.520,0.475,0.460,0.237,0.205,south,6.3,No
2015/07/26,16:00,0.499,0.291,0.522,0.475,0.459,0.237,0.204,south-southeast,6.3,No
2015/07/26,16:10,0.497,0.292,0.519,0.474,0.459,0.237,0.204,south,6.4,No
2015/07/26,16:20,0.497,0.291,0.519,0.475,0.460,0.236,0.204,south-southeast,6.1,No
2015/07/26,16:30,0.498,0.289,0.519,0.475,0.461,0.236,0.203,south-southeast,4.7,No
2015/07/26,16:40,0.497,0.289,0.520,0.476,0.460,0.237,0.204,south-southeast,5.6,No
2015/07/26,16:50,0.497,0.291,0.519,0.476,0.460,0.236,0.204,south-southeast,4.6,No
2015/07/26,17:00,0.496,0.289,0.520,0.477,0.459,0.235,0.205,south-southeast,3.6,No
2015/07/26,17:10,0.496,0.289,0.519,0.475,0.461,0.234,0.207,south-southeast,3.6,No
2015/07/26,17:20,0.495,0.290,0.519,0.480,0.460,0.234,0.205,south,4.5,No
2015/07/26,17:30,0.497,0.293,0.517,0.482,0.461,0.234,0.204,south-southeast,5.1,No
2015/07/26,17:40,0.496,0.296,0.523,0.482,0.460,0.234,0.205,south,5.5,No
2015/07/26,17:50,0.497,0.293,0.526,0.478,0.460,0.234,0.207,south,5.7,No
2015/07/26,18:00,0.505,0.291,0.524,0.475,0.460,0.235,0.206,south,6.3,No
2015/07/26,18:10,0.503,0.290,0.521,0.481,0.458,0.236,0.205,south,6.9,No
2015/07/26,18:20,0.503,0.294,0.522,0.484,0.458,0.236,0.204,south,7.2,No
2015/07/26,18:30,0.498,0.293,0.523,0.480,0.457,0.235,0.207,south,8.1,No
2015/07/26,18:40,0.498,0.292,0.530,0.479,0.458,0.235,0.206,south,7.5,No
2015/07/26,18:50,0.505,0.291,0.525,0.480,0.458,0.235,0.204,south,6.7,No
2015/07/26,19:00,0.503,0.293,0.521,0.488,0.463,0.235,0.205,south,6.8,No
2015/07/26,19:10,0.499,0.295,0.521,0.481,0.466,0.235,0.207,south,5.6,No
2015/07/26,19:20,0.498,0.292,0.531,0.477,0.465,0.235,0.206,south,4.4,No
2015/07/26,19:30,0.507,0.291,0.527,0.479,0.460,0.235,0.205,south,5.6,No
2015/07/26,19:40,0.505,0.294,0.523,0.484,0.465,0.235,0.206,south,6.4,No
2015/07/26,19:50,0.497,0.292,0.524,0.480,0.469,0.235,0.206,south,5.9,No
2015/07/26,20:00,0.499,0.291,0.530,0.477,0.464,0.237,0.205,south,6.9,No
2015/07/26,20:10,0.502,0.293,0.526,0.480,0.460,0.235,0.206,south,6.3,No
2015/07/26,20:20,0.502,0.294,0.521,0.484,0.470,0.235,0.208,south,6.1,No
2015/07/26,20:30,0.497,0.293,0.526,0.482,0.469,0.235,0.206,south,5.0,No
2015/07/26,20:40,0.502,0.292,0.529,0.478,0.461,0.236,0.204,south,4.9,No
2015/07/26,20:50,0.506,0.293,0.526,0.484,0.463,0.235,0.206,south-southwest,4.6,No
2015/07/26,21:00,0.500,0.293,0.520,0.483,0.469,0.235,0.205,south-southwest,4.8,No
2015/07/26,21:10,0.498,0.292,0.526,0.480,0.465,0.236,0.205,south,5.0,No
2015/07/26,21:20,0.505,0.295,0.527,0.479,0.460,0.235,0.206,south,4.8,No
2015/07/26,21:30,0.505,0.293,0.523,0.485,0.468,0.236,0.206,south,5.0,No
2015/07/26,21:40,0.498,0.293,0.524,0.481,0.467,0.237,0.205,south,4.7,No
2015/07/26,21:50,0.502,0.295,0.531,0.478,0.460,0.236,0.206,south,5.6,No
2015/07/26,22:00,0.504,0.294,0.526,0.484,0.466,0.236,0.206,south-southwest,4.5,No
2015/07/26,22:10,0.501,0.292,0.522,0.484,0.469,0.237,0.205,south-southwest,4.0,No
2015/07/26,22:20,0.498,0.295,0.529,0.479,0.465,0.236,0.207,south-southwest,3.9,No
2015/07/26,22:30,0.503,0.295,0.528,0.480,0.463,0.237,0.207,south-southwest,3.6,No
2015/07/26,22:40,0.504,0.291,0.523,0.486,0.472,0.237,0.205,south-southwest,2.7,No
2015/07/26,22:50,0.498,0.296,0.528,0.482,0.468,0.236,0.209,south-southwest,3.2,No
2015/07/26,23:00,0.505,0.294,0.529,0.479,0.463,0.237,0.208,southwest,3.0,No
2015/07/26,23:10,0.505,0.293,0.525,0.486,0.467,0.237,0.208,southwest,4.7,No
2015/07/26,23:20,0.500,0.296,0.522,0.482,0.466,0.236,0.207,southwest,5.5,No
2015/07/26,23:30,0.501,0.295,0.532,0.477,0.462,0.237,0.207,southwest,3.6,No
2015/07/26,23:40,0.507,0.292,0.529,0.481,0.464,0.237,0.205,southwest,3.1,No
2015/07/26,23:50,0.500,0.295,0.522,0.486,0.470,0.236,0.208,southwest,3.9,No
